sat.trackr.live / text

‹ back to catalog

ONEWEB-0295

NORAD 49084 · 2021-075K

PAYLOAD ACTIVE UNKNOWN

§ Identity

Operator
Country
UK
Launch date
2021-08-21
Launch site
TYMSC
Launch vehicle
Mass (kg)
RCS (m²)

Purposes: comms

External: N2YO · Heavens-Above · Gunter

§ Orbital elements

Epoch: 2026-09-10T00:12:10.395360Z

Period
109.29 min
Inclination
87.9207°
Eccentricity
0.0001705
Mean motion
13.17650295 rev/d
Perigee alt
1,192.4 km
Apogee alt
1,195.0 km
Semi-major
7,571.8 km
B*
-8.2208e-5
RAAN
349.0222°
Arg perigee
108.7155°
Mean anomaly
251.4162°
Rev number
24,476

§ Raw data

ONEWEB-02951 49084U 21075K   26253.00845365 -.00000019  00000+0 -82208-4 0  99942 49084  87.9207 349.0222 0001705 108.7155 251.4162 13.17650295244765

JSON: /api/v1/satellites/49084 · /tle

For live sub-satellite position, see the globe view (requires WebGL).

§ Visibility from observer

Set your observer location to see the next 7 days of passes ≥ 10°. The values pass through the URL so the page stays shareable.

No JS? Fill the form by hand. The geolocation button needs JavaScript.